Weather History for KVKY - January, 2014

Change the Weather History Date:

Friday, January 3, 2014

  Actual Average Record
Temperature  
Mean Temperature 47 °F -  
Max Temperature 53 °F - - ()
Min Temperature 41 °F - - ()
Degree Days  
Heating Degree Days 18    
Moisture  
Dew Point 34 °F    
Average Humidity 64    
Maximum Humidity 76    
Minimum Humidity 54    
Precipitation  
Precipitation 0.00 in - - ()
Sea Level Pressure  
Sea Level Pressure 30.31 in    
Wind  
Wind Speed 27 mph (East)    
Max Wind Speed 37 mph    
Max Gust Speed 47 mph    
Visibility 10 miles    
Events      
T = Trace of Precipitation, MM = Missing Value Source: NWS Daily Summary

Daily Weather History Graph

Daily Weather History Graph

Search for Another Location

Airport or City:

Trip Planner

Search our weather history database for the weather conditions in past years. The results will help you decide how hot, cold, wet, or windy it might be!

Date:

Astronomy

Jan. 03, 2014 Rise Set
Actual Time 6:48 AM CST 5:08 PM CST
Civil Twilight 6:22 AM CST 5:34 PM CST
Nautical Twilight 5:52 AM CST 6:03 PM CST
Astronomical Twilight 5:24 AM CST 6:32 PM CST
Moon 8:27 AM CST (1/3) 8:02 PM CST (1/3)
Length of Visible Light 11h 11m
Length of Day
10h 19m
Waxing Crescent, 8% of the Moon is Illuminated
Jan 3
Waxing Crescent
Jan 7
First Quarter
Jan 15
Full
Jan 23
Last Quarter
Jan 30
New

Hourly Weather History & Observations

Time (CST) Temp. Windchill Dew Point Humidity Pressure Visibility Wind Dir Wind Speed Gust Speed Precip Events Conditions
12:15 AM 48.2 °F - 37.4 °F 66% 30.27 in 10.0 mi NE 29.9 mph 36.8 mph N/A   Scattered Clouds
12:35 AM 46.4 °F 37.0 °F 35.6 °F 66% 30.27 in 10.0 mi NE 31.1 mph 38.0 mph N/A   Partly Cloudy
12:55 AM 46.4 °F 37.2 °F 35.6 °F 66% 30.27 in 10.0 mi NE 29.9 mph - N/A   Partly Cloudy
1:15 AM 46.4 °F 37.4 °F 37.4 °F 71% 30.27 in 10.0 mi NE 28.8 mph 36.8 mph N/A   Scattered Clouds
1:35 AM 44.6 °F 34.7 °F 35.6 °F 71% 30.27 in 10.0 mi NE 29.9 mph 36.8 mph N/A   Mostly Cloudy
1:55 AM 44.6 °F 34.9 °F 35.6 °F 71% 30.27 in 10.0 mi NE 28.8 mph - N/A   Mostly Cloudy
2:15 AM 44.6 °F 34.9 °F 35.6 °F 71% 30.28 in 10.0 mi NE 28.8 mph 35.7 mph N/A   Mostly Cloudy
2:35 AM 44.6 °F 35.1 °F 35.6 °F 71% 30.29 in 10.0 mi NE 27.6 mph 36.8 mph N/A   Mostly Cloudy
2:55 AM 44.6 °F 34.7 °F 35.6 °F 71% 30.30 in 10.0 mi ENE 29.9 mph 35.7 mph N/A   Mostly Cloudy
3:15 AM 44.6 °F 34.4 °F 35.6 °F 71% 30.29 in 10.0 mi ENE 32.2 mph - N/A   Overcast
3:35 AM 44.6 °F 34.9 °F 33.8 °F 66% 30.30 in 10.0 mi NE 28.8 mph 36.8 mph N/A   Mostly Cloudy
3:55 AM 44.6 °F 34.7 °F 33.8 °F 66% 30.31 in 10.0 mi ENE 29.9 mph 36.8 mph N/A   Mostly Cloudy
4:15 AM 42.8 °F 32.5 °F 32.0 °F 66% 30.32 in 10.0 mi ENE 28.8 mph 39.1 mph N/A   Mostly Cloudy
4:35 AM 42.8 °F 31.8 °F 30.2 °F 61% 30.31 in 10.0 mi ENE 33.4 mph - N/A   Partly Cloudy
4:55 AM 42.8 °F 32.5 °F 32.0 °F 66% 30.32 in 10.0 mi NE 28.8 mph 38.0 mph N/A   Scattered Clouds
5:15 AM 41.0 °F 29.5 °F 32.0 °F 70% 30.33 in 10.0 mi ENE 32.2 mph 40.3 mph N/A   Scattered Clouds
5:35 AM 41.0 °F 29.1 °F 32.0 °F 70% 30.32 in 10.0 mi ENE 34.5 mph - N/A   Mostly Cloudy
5:55 AM 41.0 °F 29.5 °F 30.2 °F 65% 30.31 in 10.0 mi ENE 32.2 mph 40.3 mph N/A   Scattered Clouds
6:15 AM 41.0 °F 29.3 °F 32.0 °F 70% 30.32 in 10.0 mi ENE 33.4 mph 39.1 mph N/A   Mostly Cloudy
6:35 AM 41.0 °F 29.1 °F 32.0 °F 70% 30.34 in 10.0 mi ENE 34.5 mph 41.4 mph N/A   Mostly Cloudy
6:55 AM 41.0 °F 29.1 °F 32.0 °F 70% 30.34 in 10.0 mi East 34.5 mph - N/A   Mostly Cloudy
7:15 AM 41.0 °F 29.1 °F 33.8 °F 76% 30.33 in 10.0 mi ENE 34.5 mph 43.7 mph N/A   Mostly Cloudy
7:35 AM 41.0 °F 29.1 °F 33.8 °F 76% 30.34 in 10.0 mi East 34.5 mph 42.6 mph N/A   Mostly Cloudy
7:55 AM 41.0 °F 29.0 °F 33.8 °F 76% 30.35 in 10.0 mi East 35.7 mph 44.9 mph N/A   Mostly Cloudy
8:15 AM 41.0 °F 29.1 °F 32.0 °F 70% 30.34 in 10.0 mi East 34.5 mph 47.2 mph N/A   Partly Cloudy
8:35 AM 41.0 °F 28.8 °F 30.2 °F 65% 30.36 in 10.0 mi East 36.8 mph 46.0 mph N/A   Partly Cloudy
8:55 AM 41.0 °F 29.0 °F 30.2 °F 65% 30.36 in 10.0 mi East 35.7 mph 46.0 mph N/A   Partly Cloudy
9:15 AM 42.8 °F 31.6 °F 32.0 °F 66% 30.36 in 10.0 mi East 34.5 mph 42.6 mph N/A   Scattered Clouds
9:35 AM 42.8 °F 31.6 °F 32.0 °F 66% 30.35 in 10.0 mi East 34.5 mph 44.9 mph N/A   Scattered Clouds
9:55 AM 42.8 °F 31.3 °F 30.2 °F 61% 30.34 in 10.0 mi East 36.8 mph 42.6 mph N/A   Partly Cloudy
10:15 AM 42.8 °F - 32.0 °F 66% - - North - - N/A   Clear
10:35 AM 42.8 °F 32.1 °F 32.0 °F 66% 30.35 in 10.0 mi East 31.1 mph 39.1 mph N/A   Unknown
10:55 AM 42.8 °F 32.3 °F 32.0 °F 66% 30.34 in 10.0 mi East 29.9 mph 36.8 mph N/A   Partly Cloudy
11:15 AM 42.8 °F 32.5 °F 32.0 °F 66% 30.35 in 10.0 mi East 28.8 mph 34.5 mph N/A   Partly Cloudy
11:35 AM 42.8 °F 33.1 °F 32.0 °F 66% 30.35 in 10.0 mi East 25.3 mph 34.5 mph N/A   Partly Cloudy
11:55 AM 42.8 °F 33.3 °F 32.0 °F 66% 30.33 in 10.0 mi East 24.2 mph 33.4 mph N/A   Clear
12:15 PM 44.6 °F 35.5 °F 33.8 °F 66% 30.31 in 10.0 mi East 25.3 mph 34.5 mph N/A   Clear
12:35 PM 42.8 °F 33.1 °F 33.8 °F 70% 30.31 in 10.0 mi East 25.3 mph 34.5 mph N/A   Clear
12:55 PM 44.6 °F 35.1 °F 33.8 °F 66% 30.30 in 10.0 mi East 27.6 mph 33.4 mph N/A   Clear
1:15 PM 44.6 °F 35.9 °F 33.8 °F 66% 30.30 in 10.0 mi East 23.0 mph 32.2 mph N/A   Clear
1:35 PM 44.6 °F 35.7 °F 33.8 °F 66% 30.30 in 10.0 mi East 24.2 mph - N/A   Clear
1:55 PM 44.6 °F 35.7 °F 32.0 °F 61% 30.29 in 10.0 mi East 24.2 mph - N/A   Clear
2:15 PM 44.6 °F 35.7 °F 32.0 °F 61% 30.29 in 10.0 mi East 24.2 mph - N/A   Clear
2:35 PM 44.6 °F 36.1 °F 32.0 °F 61% 30.30 in 10.0 mi East 21.9 mph 31.1 mph N/A   Clear
2:55 PM 44.6 °F 36.6 °F 32.0 °F 61% 30.30 in 10.0 mi East 19.6 mph 26.5 mph N/A   Clear
3:15 PM 44.6 °F 36.6 °F 32.0 °F 61% 30.30 in 10.0 mi East 19.6 mph - N/A   Clear
3:35 PM 44.6 °F 37.2 °F 32.0 °F 61% 30.30 in 10.0 mi East 17.3 mph 24.2 mph N/A   Clear
3:55 PM 44.6 °F 37.2 °F 32.0 °F 61% 30.30 in 10.0 mi East 17.3 mph 24.2 mph N/A   Clear
4:15 PM 46.4 °F 39.0 °F 32.0 °F 57% 30.30 in 10.0 mi East 19.6 mph 26.5 mph N/A   Clear
4:35 PM 46.4 °F 39.2 °F 33.8 °F 62% 30.30 in 10.0 mi East 18.4 mph - N/A   Clear
4:55 PM 46.4 °F 39.8 °F 33.8 °F 62% 30.30 in 10.0 mi East 16.1 mph 24.2 mph N/A   Clear
5:15 PM 46.4 °F 39.0 °F 32.0 °F 57% 30.30 in - East 19.6 mph - N/A   Clear
5:35 PM 46.4 °F 39.2 °F 32.0 °F 57% 30.30 in 10.0 mi East 18.4 mph - N/A   Clear
5:55 PM 46.4 °F 39.0 °F 32.0 °F 57% 30.31 in 10.0 mi East 19.6 mph - N/A   Clear
6:15 PM 46.4 °F 39.5 °F 32.0 °F 57% 30.31 in 10.0 mi East 17.3 mph - N/A   Partly Cloudy
6:35 PM 46.4 °F 39.8 °F 32.0 °F 57% 30.31 in 10.0 mi ESE 16.1 mph 24.2 mph N/A   Partly Cloudy
6:55 PM 46.4 °F 40.1 °F 32.0 °F 57% 30.31 in 10.0 mi East 15.0 mph 24.2 mph N/A   Clear
7:15 PM 48.2 °F - 33.8 °F 58% 30.32 in 10.0 mi East 16.1 mph 21.9 mph N/A   Scattered Clouds
7:35 PM 48.2 °F - 33.8 °F 58% 30.32 in 10.0 mi SE 15.0 mph 21.9 mph N/A   Mostly Cloudy
7:55 PM 48.2 °F - 32.0 °F 54% 30.32 in 10.0 mi ESE 16.1 mph - N/A   Scattered Clouds
8:15 PM 48.2 °F - 33.8 °F 58% 30.33 in 10.0 mi ESE 15.0 mph - N/A   Partly Cloudy
8:35 PM 48.2 °F - 33.8 °F 58% 30.33 in 10.0 mi ESE 11.5 mph 23.0 mph N/A   Scattered Clouds
8:55 PM 48.2 °F - 35.6 °F 62% 30.32 in 10.0 mi SE 15.0 mph 23.0 mph N/A   Mostly Cloudy
9:15 PM 50.0 °F - 35.6 °F 58% 30.32 in 10.0 mi SE 11.5 mph 23.0 mph N/A   Mostly Cloudy
9:35 PM 50.0 °F - 35.6 °F 58% 30.31 in 10.0 mi SE 18.4 mph - N/A   Overcast
9:55 PM 50.0 °F - 37.4 °F 62% 30.30 in 10.0 mi SE 17.3 mph - N/A   Overcast
10:15 PM 51.8 °F - 37.4 °F 58% 30.29 in 10.0 mi SE 16.1 mph 24.2 mph N/A   Overcast
10:35 PM 51.8 °F - 39.2 °F 62% 30.28 in 10.0 mi SE 20.7 mph - N/A   Overcast
10:55 PM 51.8 °F - 37.4 °F 58% 30.27 in 10.0 mi SE 17.3 mph - N/A   Overcast
11:15 PM 51.8 °F - 39.2 °F 62% 30.27 in 10.0 mi SE 12.7 mph 21.9 mph N/A   Overcast
11:35 PM 53.6 °F - 39.2 °F 58% 30.26 in 10.0 mi SSE 12.7 mph 20.7 mph N/A   Overcast
11:55 PM 53.6 °F - 39.2 °F 58% 30.25 in 10.0 mi SSE 11.5 mph 18.4 mph N/A   Overcast